Weather History for Buckland, AK

Change the Weather History Date:

Friday, February 21, 2014

  Actual Average (PASK) Record (PASK)
Temperature  
Mean Temperature -20 °F -  
Max Temperature -2 °F 6 °F 23 °F (2001)
Min Temperature -38 °F -2 °F -34 °F (2014)
Degree Days  
Heating Degree Days 85    
Moisture  
Dew Point -19 °F    
Average Humidity 59    
Maximum Humidity 84    
Minimum Humidity 45    
Precipitation  
Precipitation 0.00 in - - ()
Sea Level Pressure  
Sea Level Pressure 30.35 in    
Wind  
Wind Speed 1 mph (SSE)    
Max Wind Speed 14 mph    
Max Gust Speed 20 mph    
Visibility 10 miles    
Events      
Averages and records for this station are not official NWS values.
T = Trace of Precipitation, MM = Missing Value Source: NWS Daily Summary

Daily Weather History Graph

Daily Weather History Graph

Search for Another Location

Airport:

Trip Planner

Search our weather history database for the weather conditions in past years. The results will help you decide how hot, cold, wet, or windy it might be!

Date:

Astronomy

Feb. 21, 2014 Rise Set
Actual Time 9:26 AM AKST 6:31 PM AKST
Civil Twilight 8:32 AM AKST 7:24 PM AKST
Nautical Twilight 7:33 AM AKST 8:24 PM AKST
Astronomical Twilight 6:34 AM AKST 9:24 PM AKST
Moon 3:20 AM AKST (2/21) 10:10 AM AKST (2/21)
Length of Visible Light 10h 52m
Length of Day
9h 05m
Waning Gibbous, 59% of the Moon is Illuminated
Feb 21
Waning Gibbous
Feb 22
Last Quarter
Feb 28
New
Mar 8
First Quarter
Mar 16
Full

Hourly Weather History & Observations

Time (AKST) Temp. Windchill Dew Point Humidity Pressure Visibility Wind Dir Wind Speed Gust Speed Precip Events Conditions
12:16 AM -34.6 °F - - N/A% 30.32 in 10.0 mi Calm Calm - N/A   Clear
12:36 AM -34.6 °F - - N/A% 30.32 in 10.0 mi Calm Calm - N/A   Clear
12:56 AM -34.6 °F - - N/A% 30.33 in 10.0 mi Calm Calm - N/A   Clear
1:16 AM -34.6 °F - - N/A% 30.33 in 10.0 mi Calm Calm - N/A   Clear
1:36 AM -34.6 °F - - N/A% 30.34 in 10.0 mi Calm Calm - N/A   Clear
1:56 AM -36.4 °F - - N/A% 30.34 in 10.0 mi Calm Calm - N/A   Clear
2:16 AM -38.2 °F -56.9 °F - N/A% 30.33 in 10.0 mi SSE 5.8 mph - N/A   Clear
2:36 AM -34.6 °F - - N/A% 30.34 in 10.0 mi Calm Calm - N/A   Clear
2:56 AM -36.4 °F - - N/A% 30.35 in 10.0 mi Calm Calm - N/A   Clear
3:16 AM -36.4 °F - - N/A% 30.35 in 10.0 mi Calm Calm - N/A   Clear
3:36 AM -36.4 °F - - N/A% 30.35 in 10.0 mi Calm Calm - N/A   Clear
3:56 AM -36.4 °F - - N/A% 30.35 in 10.0 mi Calm Calm - N/A   Clear
4:16 AM -36.4 °F - - N/A% 30.35 in 10.0 mi Calm Calm - N/A   Clear
4:36 AM -34.6 °F - - N/A% 30.35 in 10.0 mi Calm Calm - N/A   Clear
4:56 AM -34.6 °F - - N/A% 30.35 in 10.0 mi Calm Calm - N/A   Clear
5:16 AM -36.4 °F - - N/A% 30.35 in 10.0 mi Calm Calm - N/A   Clear
5:36 AM -36.4 °F - - N/A% 30.35 in 10.0 mi Calm Calm - N/A   Clear
5:56 AM -36.4 °F - - N/A% 30.36 in 10.0 mi Calm Calm - N/A   Clear
6:16 AM -36.4 °F - - N/A% 30.36 in 10.0 mi Calm Calm - N/A   Clear
6:36 AM -38.2 °F - - N/A% 30.36 in 10.0 mi Calm Calm - N/A   Clear
6:56 AM -38.2 °F - - N/A% 30.36 in 10.0 mi Calm Calm - N/A   Clear
7:16 AM -36.4 °F - - N/A% 30.36 in 10.0 mi Calm Calm - N/A   Clear
7:36 AM -36.4 °F - - N/A% 30.37 in 10.0 mi Calm Calm - N/A   Clear
7:56 AM -36.4 °F - - N/A% 30.37 in 6.0 mi Calm Calm - N/A   Clear
8:16 AM -36.4 °F - - N/A% 30.37 in 10.0 mi Calm Calm - N/A   Clear
8:36 AM -34.6 °F - - N/A% 30.36 in 10.0 mi Calm Calm - N/A   Clear
8:56 AM -38.2 °F - - N/A% 30.36 in 10.0 mi Calm Calm - N/A   Clear
9:16 AM -38.2 °F - - N/A% 30.37 in 10.0 mi Calm Calm - N/A   Clear
9:36 AM -38.2 °F - - N/A% 30.37 in 10.0 mi Calm Calm - N/A   Clear
9:56 AM -36.4 °F - - N/A% 30.37 in 10.0 mi Calm Calm - N/A   Clear
10:16 AM -36.4 °F - - N/A% 30.37 in 10.0 mi Calm Calm - N/A   Clear
10:36 AM -34.6 °F - - N/A% 30.38 in 10.0 mi Calm Calm - N/A   Clear
10:56 AM -32.8 °F - - N/A% 30.38 in 10.0 mi Calm Calm - N/A   Clear
11:16 AM -32.8 °F - - N/A% 30.38 in 10.0 mi Calm Calm - N/A   Clear
11:36 AM - - - N/A% 30.38 in 10.0 mi Calm Calm - N/A   Clear
11:56 AM -29.2 °F - - N/A% 30.38 in 10.0 mi Calm Calm - N/A   Clear
12:16 PM -29.2 °F - - N/A% 30.38 in 10.0 mi Calm Calm - N/A   Clear
12:36 PM -29.2 °F - - N/A% 30.39 in 10.0 mi Calm Calm - N/A   Clear
12:56 PM -27.4 °F - - N/A% 30.39 in 10.0 mi Calm Calm - N/A   Clear
1:16 PM -25.6 °F - - N/A% 30.39 in 10.0 mi Calm Calm - N/A   Clear
1:36 PM -23.8 °F - - N/A% 30.39 in 10.0 mi Calm Calm - N/A   Clear
1:56 PM -23.8 °F - - N/A% 30.39 in 10.0 mi Calm Calm - N/A   Clear
2:16 PM -20.2 °F - - N/A% 30.38 in 10.0 mi Calm Calm - N/A   Clear
2:36 PM -18.4 °F - - N/A% 30.38 in 10.0 mi Calm Calm - N/A   Clear
2:56 PM -16.6 °F - -29.2 °F 53% 30.37 in 10.0 mi Calm Calm - N/A   Clear
3:16 PM -16.6 °F - -27.4 °F 58% 30.37 in 10.0 mi Calm Calm - N/A   Clear
3:36 PM -16.6 °F - -29.2 °F 53% 30.37 in 10.0 mi Calm Calm - N/A   Clear
3:56 PM -14.8 °F - -23.8 °F 64% 30.36 in 10.0 mi Calm Calm - N/A   Clear
4:16 PM -11.2 °F - -23.8 °F 54% 30.36 in 10.0 mi Calm Calm - N/A   Clear
4:36 PM -11.2 °F -23.0 °F -25.6 °F 49% 30.35 in 10.0 mi South 4.6 mph - N/A   Clear
4:56 PM -11.2 °F -24.8 °F -27.4 °F 45% 30.35 in 10.0 mi South 5.8 mph - N/A   Clear
5:16 PM -9.4 °F - -13.0 °F 84% 30.34 in 5.0 mi Calm Calm - N/A   Clear
5:36 PM -7.6 °F -18.8 °F -18.4 °F 59% 30.33 in 10.0 mi SSE 4.6 mph - N/A   Clear
5:56 PM -7.6 °F -22.1 °F -23.8 °F 45% 30.33 in 10.0 mi South 6.9 mph - N/A   Clear
6:16 PM -7.6 °F -18.8 °F -18.4 °F 59% 30.33 in 10.0 mi South 4.6 mph - N/A   Clear
6:36 PM -9.4 °F -22.7 °F -20.2 °F 59% 30.32 in 10.0 mi South 5.8 mph - N/A   Clear
6:56 PM -11.2 °F -24.8 °F -23.8 °F 54% 30.32 in 10.0 mi South 5.8 mph - N/A   Clear
7:16 PM -9.4 °F - - N/A% 30.33 in 10.0 mi Calm Calm - N/A   Clear
7:36 PM -9.4 °F - - N/A% 30.32 in 10.0 mi Calm Calm - N/A   Clear
7:56 PM -5.8 °F -16.7 °F -13.0 °F 71% 30.32 in 10.0 mi SSE 4.6 mph - N/A   Clear
8:16 PM -4.0 °F -22.1 °F -14.8 °F 60% 30.32 in 10.0 mi SSE 11.5 mph - N/A   Clear
8:36 PM -4.0 °F -22.1 °F -11.2 °F 71% 30.32 in 10.0 mi SSE 11.5 mph - N/A   Clear
8:56 PM -5.8 °F -24.4 °F -16.6 °F 60% 30.31 in 10.0 mi SSE 11.5 mph - N/A   Clear
9:16 PM -5.8 °F -23.4 °F -14.8 °F 65% 30.31 in 10.0 mi SSE 10.4 mph - N/A   Clear
9:36 PM -4.0 °F -23.7 °F -9.4 °F 78% 30.31 in 10.0 mi SE 13.8 mph - N/A   Clear
9:56 PM -4.0 °F -21.2 °F -14.8 °F 60% 30.32 in 10.0 mi SE 10.4 mph - N/A   Clear
10:16 PM -4.0 °F -20.2 °F -14.8 °F 60% 30.31 in 10.0 mi SE 9.2 mph - N/A   Clear
10:36 PM -2.2 °F -21.5 °F -11.2 °F 66% 30.30 in 10.0 mi ESE 13.8 mph 19.6 mph N/A   Clear
10:56 PM -2.2 °F -21.5 °F -14.8 °F 55% 30.30 in 10.0 mi ESE 13.8 mph 19.6 mph N/A   Clear
11:16 PM -2.2 °F -21.5 °F -16.6 °F 50% 30.30 in 10.0 mi ESE 13.8 mph 19.6 mph N/A   Clear
11:36 PM -2.2 °F -15.6 °F -14.8 °F 55% 30.30 in 10.0 mi South 6.9 mph 16.1 mph N/A   Clear
11:56 PM -2.2 °F -19.9 °F -14.8 °F 55% 30.30 in 10.0 mi SSE 11.5 mph - N/A   Clear